sat.trackr.live / text

‹ back to catalog

STARLINK-34638

NORAD 64762 · 2025-147H

PAYLOAD ACTIVE UNKNOWN

§ Identity

Operator
Country
US
Launch date
2025-07-08
Launch site
AFETR
Launch vehicle
Mass (kg)
RCS (m²)

Purposes: comms

External: N2YO · Heavens-Above · Gunter

§ Orbital elements

Epoch: 2026-05-24T23:34:11.837280Z

Period
93.85 min
Inclination
53.1585°
Eccentricity
0.0001293
Mean motion
15.34401100 rev/d
Perigee alt
461.8 km
Apogee alt
463.6 km
Semi-major
6,840.8 km
B*
1.0270e-3
RAAN
247.5910°
Arg perigee
86.9584°
Mean anomaly
273.1567°
Rev number
5,044

§ Raw data

STARLINK-346381 64762U 25147H   26144.98208145  .00034483  00000+0  10270-2 0  99912 64762  53.1585 247.5910 0001293  86.9584 273.1567 15.34401100 50440

JSON: /api/v1/satellites/64762 · /tle

For live sub-satellite position, see the globe view (requires WebGL).

§ Visibility from observer

Set your observer location to see the next 7 days of passes ≥ 10°. The values pass through the URL so the page stays shareable.

No JS? Fill the form by hand. The geolocation button needs JavaScript.